Погода в Большом Сундыре

Россия / Чувашская Республика     56˚06′40″N   46˚44′43″E
темп.,
°C
ветер,
м/с
пор.,
м/с
влажн.,
%
обл.,
%
осадки,
мм/ч
давл.,
гПа
погр.,
м
17 января, вс
вс1700:00−16˚з3597100 0.3 999100
03:00−15˚з4796100 0.3 1001204
06:00−15˚зсз4895100 0.3 1003300
09:00−18˚зсз489799 0.3 1005223
12:00−18˚зсз359696 0.0 1009259
15:00−20˚зсз349992 0.1 101254
18:00−24˚сз2310070 0.0 101420
21:00−26˚з1110035 0.0 101720
18 января, пн
пн1800:00−27˚зсз121001 0.0 101819
03:00−27˚зюз1110010 0.0 101919
06:00−28˚зюз1110068 0.0 101819
09:00−28˚зюз229872 0.0 102019
12:00−24˚з129657 0.0 102078
15:00−25˚юз119751 0.0 101920
18:00−27˚ююз119897 0.0 101919
21:00−26˚зсз119698 0.0 101919
19 января, вт
вт1900:00−25˚ссв1295100 0.0 101920
03:00−24˚всв2296100 0.0 101821
06:00−23˚всв1296100 0.0 101733
09:00−23˚св2396100 0.0 101798
12:00−21˚св2396100 0.0 1016163
15:00−20˚ссв2396100 0.0 1015167
18:00−20˚ссв2598100 0.0 1016151
21:00−21˚с2396100 0.0 101676
20 января, ср
ср2000:00−21˚с2496100 0.0 1016126
03:00−21˚ссз3598100 0.1 1016166
06:00−23˚ссз359999 0.1 1017102
09:00−24˚ссз359999 0.1 101894
12:00−23˚ссз359430 0.0 1018163
15:00−24˚сз349415 0.0 101962
18:00−26˚сз23970 0.0 102120
21:00−26˚зсз33990 0.0 102219
21 января, чт
чт2100:00−25˚з3410044 0.0 102148
03:00−23˚зюз4610061 0.0 1021106
06:00−21˚зюз599997 0.1 1020173
09:00−18˚зюз699699 0.1 1020245
12:00−15˚зюз6996100 0.1 1020265
15:00−15˚зюз5995100 0.1 1019261
18:00−15˚зюз51094100 0.0 1019245
21:00−14˚юз5994100 0.0 1017253